Vertical_Velocity
-0 0 1 0 -2 1 4 1 -6 3 4 -8 1 -1 -1 -0 -1 -1 -0 0 -0 -0 -0 -0 -1 -0 -2 1 -2 -1 -3 -4 -1 -9 -1 -2 -2 -3 -3 -7 -6 -2 -5 -23
-2 -3 -3 -2 -1 -3 -3 -2 -1 1 -0 -6 -1 1 0 -0 0 -0 1 0 -0 -0 -0 -3 0 -0 1 1 -1 -3 -3 -3 -3 -7 -5 -3 1 -1 -1 -1 -3 -3 -6 -19
-2 -1 -1 -2 -3 -1 -4 -1 -8 -3 -4 1 -4 -0 0 0 -0 -0 -0 0 -1 -0 -0 -0 -1 1 -1 -0 -0 1 1 -0 -6 -9 -7 -4 1 0 0 -3 -2 -3 -8 -6
-2 -3 -1 -2 -3 -3 -0 0 -2 -0 -4 -4 -0 -1 -1 0 -0 -0 0 0 -0 -2 0 1 -0 0 1 0 -0 0 -3 -1 2 -2 -1 1 -2 -1 0 0 -8 -5 -20 -2
1 -0 -0 -2 -1 -3 -4 -0 -1 0 1 2 0 -1 -2 -1 0 -5 -0 -0 -0 0 -0 -5 -0 -2 -0 -6 3 -0 0 -4 1 -2 -0 1 1 -1 0 -0 -1 2 3 -13
-1 -2 -4 -4 -4 -2 -2 -0 -1 1 1 0 -2 -2 -0 0 -0 0 -0 -3 0 2 -5 1 0 -1 -0 -4 -7 -1 -1 -1 -1 -4 0 -1 -1 -11 -2 -1 -0 -5 1 -22
-1 -1 -1 -1 -4 -6 -0 -0 -0 -2 -4 -0 -1 0 -1 -0 -1 -0 -0 0 -0 -0 -0 -2 0 3 2 4 1 -3 -1 0 -0 -2 -2 -2 -19 -1 -2 -4 -2 -0 0 -2
-2 -1 -1 -2 -2 -2 -3 -3 -1 -0 -1 1 -1 -1 0 -0 -1 0 0 1 -1 -0 -1 -2 -3 -4 -4 -3 0 1 -1 -2 -2 -2 -1 -11 -6 -0 -2 -3 1 1 0 -0
-3 -5 -3 -2 -2 -1 -3 -2 -2 -2 -1 -5 2 0 1 -1 -0 -3 2 1 1 -0 -1 -0 -1 -3 -5 -1 1 -1 -0 -2 -4 1 1 -2 -4 1 0 -2 0 -0 -1 0
-1 -4 -8 -4 -0 -3 -4 -3 1 1 0 -1 -0 -2 -2 0 1 -1 1 0 0 0 -0 1 -1 -3 -3 -3 -1 -0 0 0 -2 -1 -0 -8 -4 -0 1 3 -2 3 4 4
-2 1 2 -2 -4 -4 -0 2 1 -2 2 -9 -1 6 0 1 1 -2 1 -5 -1 -0 0 0 -3 1 -5 1 -4 -5 -7 -5 -1 1 2 -10 -1 -0 -5 5 3 1 -3 2
-0 -2 -1 -1 -1 -3 -2 3 -1 0 3 -5 -1 -0 2 0 2 2 -3 -0 -0 -2 -1 -0 -0 -1 -1 -0 -2 1 -3 -9 -6 -8 -14 -1 12 -0 9 2 -0 -3 2 0
-1 -1 -2 -3 -3 -0 1 -1 -3 -1 2 -14 4 -9 3 -3 -3 15 -1 -1 2 3 4 -1 -0 1 -1 -1 -4 1 -3 2 -0 -1 -2 2 -1 11 3 -3 -2 1 3 0
-1 -3 1 -0 -1 -0 -0 -1 -2 0 -1 4 -5 1 1 2 3 4 5 4 5 0 -0 -0 -0 -0 2 -2 -3 2 -3 1 0 -4 -4 -4 0 -1 -2 1 5 1 -1 -3
-0 -3 -2 -2 -1 -0 -0 1 -1 -0 0 3 -8 -3 0 1 3 5 8 4 3 1 3 2 -1 -0 2 -1 3 0 -1 1 1 1 3 0 -3 -7 -2 4 -2 -6 0 1
-0 2 -2 -1 -2 -2 0 1 2 3 1 2 0 1 -0 0 1 -2 -2 -0 4 3 2 -1 -1 -0 3 2 0 2 -2 -3 -0 -0 2 -1 7 1 -0 -4 -5 0 3 -2
-3 -1 1 -2 3 -1 -2 1 1 0 -3 -0 -3 -2 3 1 2 0 0 -0 3 4 -2 3 -1 -0 4 1 1 -3 -1 0 -2 -0 -0 2 -1 0 5 5 7 5 1 1
-1 0 0 -2 -1 -1 1 -1 1 2 -0 3 1 -5 3 0 3 1 0 1 0 -1 0 1 1 4 2 2 -2 4 3 2 1 -1 -2 -3 -3 -2 -0 1 1 -1 1 3
-2 -5 -2 0 -0 -1 -1 -1 1 1 -1 2 2 0 -3 -3 -3 -0 -0 -1 1 3 -0 -1 3 -1 -1 -3 -1 -1 -2 -1 0 1 1 1 1 -2 -5 -4 -4 2 -6 -0
-2 -3 -1 0 1 3 2 3 -2 -1 -2 1 0 1 -2 1 0 -1 1 2 -1 -1 -4 1 -0 -0 0 2 -8 2 2 -0 -2 -3 -7 -3 -3 4 -1 1 1 3 -2 -6
-1 -0 1 2 0 -2 2 0 2 1 1 4 4 1 0 1 2 1 0 -1 -1 -1 -6 -6 -1 -2 -2 -1 -0 -0 1 0 -1 0 -1 3 5 1 0 -8 -2 0 1 -1
-1 -1 -1 1 -1 -2 -3 -1 -3 -1 3 -5 -1 -2 2 -2 3 -1 -2 -1 -3 -3 0 -5 -1 -3 10 1 3 -1 -2 -0 -1 4 2 2 1 5 4 4 -1 -1 -1 -1
0 -1 -1 -1 0 -9 -4 -2 -3 -2 -1 -1 -3 -5 1 -1 -2 -0 -1 1 -4 0 -4 -2 -1 -0 -0 -5 -9 -8 -2 -2 2 -1 0 0 -1 0 4 -5 2 2 -1 2
-2 -2 -7 -7 -4 -2 -0 -1 -1 0 2 -1 -0 -1 1 -1 -2 0 1 -6 -5 -3 -3 -2 -2 -4 -3 -2 -2 -0 -7 -4 -5 -6 -4 -2 -0 -6 -1 3 1 -1 -4 -3
-1 -1 -4 -1 -1 0 2 -2 -1 -1 -0 -1 -2 -2 -0 -1 -0 1 -3 -7 -2 -2 -2 -2 -2 0 1 -4 -1 2 2 0 -0 1 -3 -4 -2 -1 -8 3 -0 5 1 -1
1 -1 -2 1 -1 -1 -0 -1 -1 2 -0 1 -2 -0 -2 -2 -1 -4 -2 -3 -3 -6 -2 -0 1 1 2 0 -1 -1 -1 2 -0 1 1 -1 0 2 -2 -1 -2 2 1 -1
-0 -2 -0 -0 0 -1 -0 1 -2 1 -1 -1 -1 -2 -11 -3 -3 -1 -2 -4 -4 1 -1 3 2 0 -3 -2 1 2 1 -0 0 0 1 -0 -1 -1 -2 -5 -6 -2 -2 -0
Height
1524 1522 1519 1516 1512 1509 1507 1505 1506 1507 1506 1507 1513 1523 1520 1521 1522 1523 1522 1522 1521 1521 1521 1524 1528 1528 1531 1531 1531 1533 1531 1541 1557 1541 1538 1538 1542 1544 1546 1563 1556 1569 1572 1539
1526 1523 1520 1516 1514 1510 1508 1509 1509 1508 1505 1520 1522 1520 1521 1522 1522 1522 1523 1522 1521 1521 1521 1525 1524 1525 1529 1528 1529 1530 1532 1539 1556 1538 1542 1541 1538 1536 1534 1537 1548 1555 1563 1524
1526 1523 1521 1518 1515 1513 1511 1511 1514 1510 1509 1512 1516 1518 1519 1521 1522 1522 1521 1523 1523 1523 1524 1523 1525 1527 1528 1529 1530 1531 1530 1533 1531 1535 1525 1532 1536 1531 1532 1534 1564 1548 1532 1504
1527 1524 1522 1519 1517 1515 1514 1512 1515 1514 1519 1515 1515 1515 1516 1519 1520 1522 1523 1523 1523 1523 1523 1523 1525 1525 1529 1530 1530 1531 1533 1537 1530 1523 1521 1520 1520 1518 1524 1532 1518 1526 1491 1514
1527 1525 1523 1520 1517 1515 1516 1516 1517 1516 1515 1515 1515 1516 1517 1517 1517 1518 1520 1521 1519 1521 1521 1519 1520 1522 1525 1524 1530 1532 1532 1533 1525 1523 1516 1517 1517 1510 1508 1509 1508 1505 1498 1497
1527 1525 1523 1521 1518 1517 1515 1517 1518 1517 1516 1516 1518 1517 1515 1515 1515 1516 1516 1517 1518 1518 1517 1516 1515 1516 1515 1515 1520 1527 1530 1533 1531 1533 1512 1511 1516 1498 1491 1498 1497 1493 1499 1481
1527 1525 1523 1522 1520 1519 1519 1518 1518 1517 1518 1516 1516 1515 1515 1515 1516 1517 1516 1515 1516 1516 1515 1514 1513 1511 1510 1511 1511 1512 1522 1526 1527 1532 1514 1527 1487 1481 1482 1486 1482 1484 1483 1482
1525 1524 1523 1522 1521 1520 1520 1520 1520 1519 1519 1516 1513 1513 1513 1512 1513 1514 1514 1514 1514 1514 1515 1517 1516 1515 1511 1505 1508 1509 1509 1518 1522 1528 1534 1502 1484 1477 1481 1481 1485 1484 1484 1482
1521 1521 1521 1520 1520 1519 1519 1519 1519 1519 1519 1516 1515 1514 1513 1513 1512 1511 1509 1509 1510 1512 1513 1516 1516 1516 1506 1507 1510 1511 1510 1511 1518 1522 1521 1509 1481 1479 1480 1480 1489 1482 1482 1481
1520 1518 1518 1518 1517 1517 1517 1517 1517 1517 1516 1512 1512 1512 1512 1512 1511 1511 1509 1508 1509 1509 1512 1516 1516 1509 1495 1503 1507 1514 1516 1517 1515 1513 1513 1501 1482 1478 1478 1484 1491 1484 1482 1479
1520 1518 1516 1515 1514 1514 1514 1513 1513 1515 1512 1510 1509 1509 1509 1508 1508 1509 1509 1510 1508 1509 1512 1512 1506 1504 1492 1489 1492 1501 1502 1510 1515 1514 1514 1506 1479 1478 1483 1495 1486 1485 1485 1481
1520 1517 1516 1514 1512 1510 1510 1510 1508 1508 1509 1507 1505 1505 1504 1504 1506 1506 1506 1506 1505 1503 1507 1506 1503 1498 1493 1490 1492 1486 1489 1487 1490 1494 1492 1479 1482 1485 1487 1485 1484 1482 1480 1479
1518 1516 1514 1513 1511 1509 1507 1506 1505 1505 1503 1499 1499 1497 1497 1496 1498 1500 1503 1503 1503 1502 1501 1503 1501 1500 1495 1497 1494 1486 1482 1480 1483 1485 1481 1480 1480 1482 1483 1482 1481 1479 1477 1475
1514 1514 1512 1511 1509 1508 1506 1504 1503 1503 1503 1499 1494 1492 1492 1493 1493 1494 1494 1495 1498 1500 1500 1499 1496 1495 1492 1492 1487 1485 1483 1481 1482 1480 1480 1480 1481 1483 1483 1481 1479 1477 1475 1473
1512 1511 1510 1508 1507 1505 1504 1501 1500 1500 1504 1497 1493 1488 1489 1489 1489 1490 1490 1491 1492 1494 1495 1493 1490 1489 1491 1487 1485 1480 1483 1485 1484 1480 1486 1487 1485 1482 1483 1479 1477 1477 1475 1469
1510 1509 1506 1506 1504 1503 1501 1501 1500 1499 1498 1499 1493 1487 1484 1484 1485 1484 1485 1487 1487 1488 1488 1487 1485 1484 1486 1480 1476 1482 1482 1483 1483 1484 1483 1484 1481 1481 1482 1478 1479 1478 1474 1471
1507 1507 1504 1502 1502 1500 1500 1501 1498 1497 1498 1497 1493 1487 1482 1482 1482 1482 1483 1483 1483 1484 1483 1480 1481 1482 1481 1477 1473 1481 1479 1480 1480 1481 1482 1483 1482 1481 1479 1478 1476 1474 1471 1469
1505 1503 1501 1499 1497 1495 1495 1494 1496 1496 1497 1496 1494 1487 1485 1482 1481 1482 1481 1482 1482 1481 1479 1478 1476 1476 1475 1473 1478 1478 1479 1479 1480 1481 1481 1481 1480 1479 1477 1475 1473 1470 1468 1464
1500 1499 1497 1494 1493 1493 1493 1493 1493 1493 1497 1493 1490 1488 1487 1483 1482 1481 1481 1481 1481 1480 1478 1476 1476 1473 1475 1474 1475 1478 1479 1480 1479 1480 1480 1479 1478 1476 1474 1472 1469 1466 1463 1460
1495 1495 1495 1492 1493 1492 1492 1488 1488 1491 1490 1489 1488 1486 1485 1484 1482 1480 1482 1480 1481 1484 1476 1473 1473 1475 1475 1477 1479 1479 1479 1479 1478 1478 1477 1475 1473 1472 1469 1466 1463 1460 1456 1452
1493 1494 1492 1491 1491 1490 1488 1488 1487 1486 1487 1488 1487 1487 1486 1483 1482 1480 1479 1479 1480 1487 1477 1478 1480 1482 1477 1479 1479 1479 1478 1477 1476 1474 1472 1470 1468 1465 1463 1459 1455 1452 1448 1444
1495 1493 1492 1490 1488 1490 1491 1490 1487 1484 1486 1490 1490 1488 1487 1485 1483 1482 1483 1484 1484 1487 1476 1483 1488 1482 1479 1480 1479 1478 1477 1475 1473 1471 1468 1466 1463 1460 1455 1451 1448 1444 1440 1437
1491 1491 1493 1492 1492 1496 1496 1498 1494 1492 1490 1489 1490 1489 1488 1486 1485 1483 1484 1485 1488 1478 1489 1490 1486 1484 1481 1480 1479 1477 1473 1472 1469 1466 1463 1459 1455 1451 1448 1443 1439 1435 1431 1427
1492 1493 1497 1496 1499 1495 1491 1492 1491 1491 1491 1490 1489 1489 1489 1488 1488 1486 1487 1485 1485 1495 1504 1494 1484 1481 1478 1477 1476 1472 1468 1466 1463 1460 1456 1451 1448 1443 1439 1436 1431 1427 1421 1417
1493 1494 1499 1497 1491 1492 1492 1492 1491 1491 1490 1490 1490 1490 1490 1490 1489 1488 1489 1495 1499 1491 1484 1482 1478 1476 1476 1473 1470 1466 1463 1459 1456 1452 1447 1443 1439 1434 1429 1426 1422 1418 1413 1408
1492 1492 1492 1491 1492 1491 1491 1491 1491 1490 1490 1490 1491 1492 1494 1495 1493 1497 1498 1502 1500 1487 1480 1477 1475 1473 1471 1467 1463 1460 1457 1453 1448 1444 1440 1435 1431 1427 1422 1416 1413 1409 1406 1400
1491 1490 1490 1492 1491 1491 1491 1491 1490 1490 1491 1491 1491 1500 1498 1493 1502 1499 1491 1492 1482 1477 1475 1473 1471 1468 1464 1461 1457 1453 1448 1444 1440 1436 1432 1428 1424 1419 1414 1408 1404 1401 1397 1393